TimeCDT,TemperatureF,Dew PointF,Humidity,Sea Level PressureIn,VisibilityMPH,Wind Direction,Wind SpeedMPH,Gust SpeedMPH,PrecipitationIn,Events,Conditions,WindDirDegrees,DateUTC
12:15 AM,66.2,66.2,100,29.76,10.0,South,11.5,21.9,N/A,,Mostly Cloudy,170,2013-05-22 05:15:00
12:35 AM,66.2,66.2,100,29.76,10.0,South,9.2,-,N/A,,Mostly Cloudy,180,2013-05-22 05:35:00
12:55 AM,66.2,66.2,100,29.76,10.0,South,6.9,-,N/A,,Scattered Clouds,170,2013-05-22 05:55:00
1:15 AM,66.2,66.2,100,29.75,10.0,South,9.2,-,N/A,,Scattered Clouds,170,2013-05-22 06:15:00
1:35 AM,66.2,66.2,100,29.74,10.0,South,6.9,-,N/A,,Overcast,180,2013-05-22 06:35:00
2:15 AM,66.2,64.4,94,29.72,10.0,South,5.8,-,N/A,,Scattered Clouds,180,2013-05-22 07:15:00
2:35 AM,66.2,64.4,94,29.73,10.0,South,3.5,-,N/A,,Scattered Clouds,190,2013-05-22 07:35:00
2:55 AM,66.2,64.4,94,29.73,10.0,SSW,4.6,-,N/A,,Overcast,210,2013-05-22 07:55:00
3:15 AM,66.2,64.4,94,29.74,10.0,SSW,4.6,-,N/A,,Overcast,200,2013-05-22 08:15:00
3:35 AM,66.2,64.4,94,29.75,10.0,SSW,4.6,-,N/A,Rain,Light Rain,200,2013-05-22 08:35:00
3:55 AM,66.2,64.4,94,29.75,10.0,South,5.8,-,N/A,,Mostly Cloudy,190,2013-05-22 08:55:00
4:15 AM,66.2,64.4,94,29.76,10.0,South,5.8,-,N/A,Rain,Light Rain,190,2013-05-22 09:15:00
4:35 AM,66.2,64.4,94,29.75,10.0,SSW,5.8,-,N/A,,Overcast,200,2013-05-22 09:35:00
4:55 AM,66.2,64.4,94,29.76,10.0,South,5.8,-,N/A,Rain,Light Rain,190,2013-05-22 09:55:00
5:15 AM,66.2,64.4,94,29.73,10.0,SSE,5.8,-,N/A,,Mostly Cloudy,160,2013-05-22 10:15:00
5:35 AM,66.2,64.4,94,29.73,10.0,SSE,3.5,-,N/A,,Mostly Cloudy,160,2013-05-22 10:35:00
5:55 AM,66.2,64.4,94,29.73,10.0,South,3.5,-,N/A,,Mostly Cloudy,170,2013-05-22 10:55:00
6:15 AM,66.2,64.4,94,29.71,10.0,SSE,6.9,-,N/A,,Scattered Clouds,150,2013-05-22 11:15:00
6:35 AM,66.2,64.4,94,29.72,10.0,SSE,5.8,-,N/A,,Clear,160,2013-05-22 11:35:00
6:55 AM,66.2,64.4,94,29.73,10.0,South,8.1,-,N/A,,Clear,180,2013-05-22 11:55:00
7:15 AM,68.0,64.4,88,29.73,10.0,South,11.5,-,N/A,,Scattered Clouds,170,2013-05-22 12:15:00
7:35 AM,68.0,64.4,88,29.74,10.0,South,10.4,20.7,N/A,,Mostly Cloudy,180,2013-05-22 12:35:00
7:55 AM,68.0,62.6,83,29.75,10.0,South,11.5,20.7,N/A,,Overcast,190,2013-05-22 12:55:00
8:15 AM,69.8,62.6,78,29.75,10.0,SSW,11.5,19.6,N/A,,Overcast,200,2013-05-22 13:15:00
8:35 AM,69.8,62.6,78,29.75,10.0,SW,10.4,17.3,N/A,Rain,Rain,220,2013-05-22 13:35:00
8:55 AM,68.0,62.6,83,29.75,10.0,South,10.4,16.1,N/A,,Scattered Clouds,190,2013-05-22 13:55:00
9:15 AM,71.6,62.6,73,29.76,10.0,SW,5.8,-,N/A,,Clear,220,2013-05-22 14:15:00
9:35 AM,71.6,62.6,73,29.76,10.0,SSW,10.4,18.4,N/A,,Mostly Cloudy,200,2013-05-22 14:35:00
9:55 AM,71.6,62.6,73,29.76,10.0,SSW,8.1,16.1,N/A,,Mostly Cloudy,200,2013-05-22 14:55:00
10:15 AM,73.4,62.6,69,29.76,10.0,SSW,10.4,17.3,N/A,,Mostly Cloudy,200,2013-05-22 15:15:00
10:35 AM,75.2,62.6,65,29.77,10.0,SSW,11.5,16.1,N/A,,Mostly Cloudy,200,2013-05-22 15:35:00
10:55 AM,73.4,62.6,69,29.77,10.0,SSW,9.2,-,N/A,,Overcast,200,2013-05-22 15:55:00
11:15 AM,73.4,62.6,69,29.78,10.0,SSW,9.2,-,N/A,,Overcast,210,2013-05-22 16:15:00
11:35 AM,73.4,62.6,69,29.78,10.0,SSW,8.1,-,N/A,,Overcast,210,2013-05-22 16:35:00
11:55 AM,73.4,62.6,69,29.78,10.0,SSW,9.2,17.3,N/A,,Overcast,200,2013-05-22 16:55:00
12:15 PM,75.2,62.6,65,29.77,10.0,South,11.5,-,N/A,,Mostly Cloudy,190,2013-05-22 17:15:00
12:35 PM,75.2,62.6,65,29.77,10.0,SSW,8.1,-,N/A,,Scattered Clouds,200,2013-05-22 17:35:00
12:55 PM,75.2,62.6,65,29.77,10.0,SW,6.9,-,N/A,,Mostly Cloudy,230,2013-05-22 17:55:00
1:15 PM,78.8,62.6,57,29.77,10.0,WSW,9.2,-,N/A,,Scattered Clouds,240,2013-05-22 18:15:00
1:35 PM,77.0,60.8,57,29.77,10.0,WSW,8.1,-,N/A,,Scattered Clouds,250,2013-05-22 18:35:00
1:55 PM,80.6,62.6,54,29.77,10.0,SW,5.8,-,N/A,,Mostly Cloudy,220,2013-05-22 18:55:00
2:15 PM,78.8,60.8,54,29.77,10.0,WSW,11.5,16.1,N/A,,Mostly Cloudy,250,2013-05-22 19:15:00
2:35 PM,77.0,60.8,57,29.77,10.0,SW,5.8,-,N/A,,Mostly Cloudy,230,2013-05-22 19:35:00
2:55 PM,80.6,59.0,48,29.76,10.0,WSW,10.4,17.3,N/A,,Scattered Clouds,240,2013-05-22 19:55:00
3:15 PM,80.6,59.0,48,29.75,10.0,SSW,6.9,-,N/A,,Scattered Clouds,210,2013-05-22 20:15:00
3:35 PM,82.4,60.8,48,29.75,10.0,WSW,8.1,-,N/A,,Clear,240,2013-05-22 20:35:00
3:55 PM,78.8,57.2,47,29.75,10.0,WSW,8.1,-,N/A,,Scattered Clouds,240,2013-05-22 20:55:00
4:15 PM,78.8,57.2,47,29.75,10.0,SW,10.4,-,N/A,,Scattered Clouds,220,2013-05-22 21:15:00
4:35 PM,77.0,59.0,54,29.75,10.0,WSW,9.2,-,N/A,,Mostly Cloudy,240,2013-05-22 21:35:00
4:55 PM,75.2,57.2,53,29.76,10.0,WSW,10.4,16.1,N/A,,Mostly Cloudy,250,2013-05-22 21:55:00
5:15 PM,73.4,59.0,61,29.76,10.0,WSW,15.0,19.6,N/A,,Overcast,250,2013-05-22 22:15:00
5:35 PM,75.2,62.6,65,29.76,10.0,West,4.6,-,N/A,,Scattered Clouds,280,2013-05-22 22:35:00
5:55 PM,75.2,60.8,61,29.75,10.0,Calm,Calm,-,N/A,,Clear,0,2013-05-22 22:55:00
6:15 PM,75.2,60.8,61,29.75,10.0,SW,3.5,-,N/A,,Mostly Cloudy,230,2013-05-22 23:15:00
6:35 PM,73.4,57.2,57,29.75,10.0,SW,8.1,-,N/A,,Mostly Cloudy,220,2013-05-22 23:35:00
6:55 PM,75.2,59.0,57,29.75,10.0,SW,5.8,-,N/A,,Mostly Cloudy,230,2013-05-22 23:55:00
7:15 PM,73.4,57.2,57,29.76,10.0,SW,4.6,-,N/A,,Mostly Cloudy,230,2013-05-23 00:15:00
7:35 PM,71.6,59.0,64,29.77,10.0,WSW,3.5,-,N/A,,Scattered Clouds,250,2013-05-23 00:35:00
7:55 PM,71.6,60.8,69,29.77,10.0,WSW,3.5,-,N/A,,Scattered Clouds,240,2013-05-23 00:55:00
8:15 PM,71.6,60.8,69,29.78,10.0,WSW,4.6,-,N/A,,Scattered Clouds,240,2013-05-23 01:15:00
8:35 PM,71.6,60.8,69,29.78,10.0,WSW,6.9,-,N/A,,Scattered Clouds,240,2013-05-23 01:35:00
8:55 PM,69.8,60.8,73,29.79,10.0,West,6.9,-,N/A,,Scattered Clouds,260,2013-05-23 01:55:00
9:15 PM,69.8,60.8,73,29.80,10.0,West,8.1,-,N/A,,Mostly Cloudy,270,2013-05-23 02:15:00
9:35 PM,69.8,60.8,73,29.81,10.0,West,8.1,-,N/A,,Overcast,280,2013-05-23 02:35:00
9:55 PM,69.8,60.8,73,29.82,10.0,WNW,9.2,-,N/A,,Overcast,300,2013-05-23 02:55:00
10:15 PM,69.8,57.2,64,29.82,10.0,WNW,12.7,-,N/A,,Overcast,300,2013-05-23 03:15:00
10:35 PM,68.0,57.2,68,29.82,10.0,WNW,11.5,-,N/A,,Overcast,300,2013-05-23 03:35:00
10:55 PM,68.0,57.2,68,29.83,10.0,WNW,11.5,-,N/A,,Overcast,290,2013-05-23 03:55:00
11:15 PM,66.2,57.2,73,29.83,10.0,WNW,11.5,-,N/A,,Overcast,300,2013-05-23 04:15:00
11:35 PM,66.2,57.2,73,29.83,10.0,WNW,11.5,-,N/A,,Mostly Cloudy,300,2013-05-23 04:35:00
11:55 PM,64.4,57.2,77,29.84,10.0,WNW,9.2,-,N/A,,Scattered Clouds,300,2013-05-23 04:55:00